Regional Weather Roundup
Issued by NWS

Home | Current Version | Previous Version | Graphics & Text | Print | Product List | Glossary On
Versions: 1 2 3 4 5 6 7 8 9 10 11 12 13 14 15 16 17 18 19 20 21 22 23 24 25 26 27 28 29 30 31 32 33 34 35 36 37 38 39 40 41 42 43 44 45 46 47 48 49 50
000
ASUS43 KLMK 051102
RWRKY
KENTUCKY REGIONAL WEATHER ROUNDUP
NATIONAL WEATHER SERVICE LOUISVILLE KY
700 AM EDT SUN JUL 05 2015

NOTE "FAIR" INDICATES FEW OR NO CLOUDS BELOW 12,000 FEET
WITH NO SIGNIFICANT WEATHER AND/OR OBSTRUCTIONS TO VISIBILITY.

KYZ001>023-026-027-061>063-070>075-051200-
WESTERN AND SOUTH CENTRAL KENTUCKY

CITY           SKY/WX    TMP DP  RH WIND       PRES   REMARKS
PADUCAH        FOG       67  66  97 CALM      30.05R VSB<1/4
HENDERSON      CLOUDY    70  64  83 CALM      30.05R
OWENSBORO      FOG       70  70 100 CALM      30.06R VSB 1
HOPKINSVILLE   CLOUDY    70  69  97 W5        30.05R
BOWLING GREEN  CLOUDY    71  68  90 SW3       30.05R
GLASGOW        NOT AVBL
$$

KYZ024-025-028>034-038-045-046-053-051200-
NORTH CENTRAL KENTUCKY

CITY           SKY/WX    TMP DP  RH WIND       PRES   REMARKS
LOUISVILLE/SDF CLOUDY    71  67  87 N6        30.06R FOG
LOUISVILLE/LOU CLOUDY    69  67  93 N3        30.06R FOG
FORT KNOX      CLOUDY    68  66  94 N6        30.05R FOG
$$

KYZ035>037-039>044-047>052-055>060-089>105-051200-
NORTHEAST KENTUCKY

CITY           SKY/WX    TMP DP  RH WIND       PRES   REMARKS
LEXINGTON      CLOUDY    69  66  90 NE7       30.07R FOG
COVINGTON      CLOUDY    67  59  75 N5        30.10R
FRANKFORT      CLOUDY    69  65  86 NE3       30.06R FOG
$$

KYZ054-064>069-076>088-106>120-051200-
SOUTHEAST KENTUCKY

CITY           SKY/WX    TMP DP  RH WIND       PRES   REMARKS
JACKSON        CLOUDY    68  67  96 VRB3      30.09R FOG
LONDON         LGT RAIN  67  63  87 CALM      30.07R
SOMERSET       NOT AVBL
MIDDLESBORO    NOT AVBL
MONTICELLO     CLOUDY    68  68 100 CALM      30.08R FOG
$$



USA.gov is the U.S. government's official web portal to all federal, state and local government web resources and services.